Precipitable_Water
1.01 0.99 1.02 0.98 0.95 0.92 0.93 0.95 0.96 1.01 1.02 1.02 0.98 0.98 0.99 1.03 1.08 1.12 1.21 1.23 1.29 1.27 1.22 1.26 1.32 1.34 1.33 1.30 1.31 1.34 1.33 1.33 1.37 1.39 1.39 1.39 1.41 1.41 1.39 1.37 1.32 1.34 1.34 1.34 1.39 1.38 1.34 1.31 1.32 1.34 1.34 1.27 1.24 1.18 1.19 1.22 1.23 1.23 1.22 1.18 1.12 1.14 1.09 1.05 1.00 1.01 1.19 1.27 1.28 1.35 1.41 1.45 1.39 1.41 1.35 1.34 1.34 1.34 1.33 1.30 1.32 1.30 1.31 1.30 1.28
1.02 0.96 1.00 0.95 0.90 0.91 0.91 0.93 0.94 0.97 0.98 0.99 0.95 0.97 1.01 1.04 1.07 1.16 1.17 1.22 1.27 1.29 1.25 1.24 1.31 1.38 1.36 1.34 1.33 1.38 1.38 1.33 1.31 1.33 1.33 1.31 1.32 1.39 1.38 1.37 1.31 1.30 1.33 1.30 1.33 1.35 1.34 1.30 1.30 1.33 1.35 1.28 1.25 1.21 1.17 1.17 1.18 1.17 1.17 1.15 1.12 1.11 1.17 1.06 1.02 1.01 0.99 1.24 1.19 1.29 1.37 1.44 1.31 1.35 1.26 1.26 1.31 1.34 1.29 1.28 1.30 1.32 1.28 1.30 1.27
1.11 1.03 0.99 0.94 0.90 0.90 0.92 0.92 0.92 0.93 0.93 0.95 0.94 0.95 1.01 1.08 1.10 1.12 1.17 1.23 1.28 1.29 1.31 1.28 1.29 1.35 1.36 1.38 1.36 1.36 1.39 1.36 1.33 1.28 1.26 1.27 1.27 1.30 1.33 1.34 1.31 1.26 1.26 1.27 1.29 1.32 1.29 1.26 1.25 1.29 1.32 1.26 1.23 1.20 1.20 1.17 1.19 1.17 1.15 1.16 1.12 1.14 1.18 1.16 1.09 1.00 0.98 1.08 1.23 1.19 1.20 1.29 1.28 1.32 1.32 1.32 1.34 1.37 1.32 1.31 1.29 1.28 1.28 1.31 1.31
1.29 1.14 1.05 0.99 0.95 0.93 0.93 0.94 0.91 0.91 0.93 0.97 0.94 0.97 1.02 1.06 1.13 1.14 1.18 1.24 1.29 1.30 1.34 1.37 1.36 1.33 1.33 1.36 1.38 1.34 1.35 1.35 1.33 1.31 1.25 1.23 1.23 1.23 1.27 1.30 1.32 1.29 1.26 1.25 1.27 1.29 1.26 1.24 1.25 1.28 1.29 1.24 1.21 1.17 1.17 1.18 1.15 1.17 1.16 1.18 1.15 1.14 1.18 1.20 1.18 1.08 1.06 0.99 1.18 1.18 1.22 1.20 1.27 1.35 1.38 1.36 1.30 1.31 1.36 1.39 1.41 1.33 1.32 1.32 1.30
1.47 1.31 1.14 1.05 1.01 0.96 0.95 0.98 0.99 0.96 0.96 0.99 0.98 1.01 1.03 1.09 1.12 1.13 1.16 1.20 1.32 1.34 1.32 1.38 1.40 1.36 1.30 1.30 1.34 1.33 1.31 1.32 1.31 1.30 1.28 1.27 1.23 1.22 1.24 1.25 1.26 1.29 1.30 1.29 1.27 1.26 1.25 1.23 1.25 1.28 1.29 1.24 1.23 1.18 1.15 1.11 1.12 1.13 1.14 1.16 1.16 1.16 1.18 1.20 1.18 1.17 1.11 1.06 1.10 1.24 1.32 1.32 1.33 1.31 1.33 1.29 1.29 1.30 1.36 1.35 1.38 1.37 1.34 1.35 1.34
1.50 1.49 1.37 1.18 1.06 1.02 1.01 1.00 0.99 1.00 1.02 1.01 1.02 1.04 1.06 1.08 1.17 1.19 1.23 1.21 1.22 1.31 1.32 1.32 1.36 1.35 1.31 1.29 1.31 1.32 1.32 1.34 1.33 1.31 1.30 1.30 1.28 1.28 1.27 1.24 1.21 1.24 1.30 1.32 1.30 1.29 1.26 1.25 1.26 1.27 1.27 1.24 1.22 1.22 1.20 1.14 1.12 1.09 1.11 1.14 1.15 1.17 1.16 1.19 1.20 1.17 1.14 1.14 1.15 1.15 1.26 1.26 1.27 1.30 1.30 1.28 1.26 1.24 1.28 1.34 1.36 1.39 1.38 1.33 1.30
1.51 1.52 1.51 1.38 1.22 1.13 1.07 1.04 1.03 1.06 1.05 1.06 1.09 1.08 1.11 1.13 1.18 1.26 1.27 1.28 1.20 1.21 1.33 1.29 1.33 1.36 1.35 1.32 1.30 1.31 1.33 1.34 1.35 1.34 1.32 1.32 1.32 1.30 1.31 1.28 1.22 1.20 1.23 1.29 1.33 1.31 1.29 1.30 1.29 1.30 1.28 1.27 1.26 1.26 1.23 1.19 1.16 1.11 1.11 1.12 1.15 1.15 1.14 1.15 1.19 1.16 1.13 1.10 1.16 1.20 1.22 1.28 1.26 1.22 1.32 1.34 1.32 1.31 1.25 1.23 1.21 1.31 1.37 1.34 1.29
1.52 1.51 1.53 1.49 1.40 1.30 1.24 1.12 1.09 1.12 1.12 1.11 1.13 1.15 1.15 1.16 1.21 1.29 1.36 1.31 1.29 1.26 1.28 1.32 1.31 1.35 1.37 1.35 1.35 1.37 1.36 1.35 1.36 1.36 1.35 1.33 1.34 1.33 1.31 1.29 1.24 1.19 1.19 1.22 1.30 1.33 1.30 1.30 1.31 1.32 1.31 1.31 1.30 1.32 1.31 1.23 1.20 1.15 1.16 1.17 1.18 1.15 1.13 1.14 1.16 1.17 1.14 1.12 1.10 1.12 1.17 1.21 1.26 1.30 1.38 1.37 1.29 1.29 1.31 1.24 1.16 1.20 1.25 1.33 1.35
1.53 1.52 1.51 1.49 1.47 1.46 1.42 1.35 1.23 1.20 1.18 1.18 1.15 1.15 1.20 1.24 1.26 1.29 1.36 1.38 1.38 1.38 1.33 1.34 1.41 1.34 1.38 1.41 1.40 1.40 1.37 1.34 1.33 1.33 1.32 1.31 1.31 1.30 1.30 1.26 1.23 1.20 1.18 1.19 1.25 1.30 1.33 1.34 1.34 1.34 1.34 1.32 1.32 1.34 1.34 1.32 1.24 1.15 1.16 1.19 1.18 1.17 1.15 1.16 1.15 1.14 1.14 1.12 1.11 1.16 1.15 1.13 1.20 1.21 1.21 1.23 1.21 1.16 1.24 1.29 1.25 1.28 1.30 1.31 1.38
1.51 1.52 1.51 1.51 1.55 1.57 1.56 1.54 1.47 1.35 1.28 1.27 1.25 1.22 1.23 1.27 1.30 1.31 1.32 1.38 1.42 1.44 1.42 1.36 1.39 1.43 1.37 1.40 1.43 1.42 1.36 1.34 1.31 1.30 1.30 1.28 1.26 1.25 1.27 1.26 1.25 1.22 1.18 1.18 1.20 1.26 1.28 1.31 1.35 1.36 1.36 1.35 1.33 1.32 1.33 1.33 1.30 1.24 1.18 1.18 1.18 1.16 1.15 1.13 1.13 1.13 1.11 1.07 1.06 1.09 1.07 1.09 1.12 1.19 1.19 1.23 1.29 1.34 1.31 1.31 1.23 1.26 1.29 1.27 1.36
1.51 1.49 1.51 1.60 1.64 1.64 1.62 1.61 1.62 1.54 1.45 1.41 1.39 1.34 1.30 1.30 1.32 1.33 1.32 1.34 1.39 1.45 1.45 1.42 1.36 1.42 1.48 1.41 1.41 1.39 1.36 1.33 1.29 1.27 1.27 1.26 1.25 1.22 1.19 1.23 1.25 1.23 1.21 1.18 1.16 1.21 1.26 1.28 1.30 1.35 1.37 1.39 1.40 1.36 1.32 1.31 1.30 1.29 1.27 1.26 1.25 1.20 1.14 1.11 1.11 1.13 1.09 1.05 1.07 1.07 1.05 1.06 1.13 1.21 1.24 1.28 1.32 1.33 1.31 1.33 1.31 1.28 1.22 1.15 1.10
1.53 1.53 1.56 1.61 1.65 1.66 1.65 1.64 1.63 1.62 1.61 1.55 1.52 1.50 1.44 1.38 1.35 1.36 1.35 1.34 1.39 1.47 1.49 1.46 1.43 1.40 1.46 1.53 1.46 1.38 1.35 1.36 1.36 1.34 1.30 1.27 1.27 1.26 1.24 1.23 1.25 1.25 1.22 1.19 1.19 1.20 1.21 1.25 1.29 1.31 1.33 1.36 1.39 1.40 1.36 1.33 1.31 1.31 1.32 1.30 1.28 1.28 1.25 1.16 1.10 1.10 1.11 1.06 1.04 1.03 1.03 1.04 1.12 1.21 1.25 1.30 1.33 1.37 1.39 1.36 1.34 1.31 1.26 1.19 1.14
1.53 1.54 1.55 1.56 1.57 1.63 1.67 1.66 1.65 1.65 1.65 1.64 1.64 1.63 1.57 1.48 1.43 1.41 1.39 1.41 1.44 1.45 1.48 1.52 1.51 1.48 1.44 1.49 1.52 1.50 1.46 1.45 1.42 1.42 1.39 1.37 1.35 1.34 1.33 1.31 1.28 1.27 1.26 1.23 1.19 1.18 1.17 1.18 1.23 1.29 1.31 1.32 1.36 1.40 1.39 1.37 1.34 1.33 1.32 1.31 1.30 1.28 1.26 1.25 1.24 1.18 1.17 1.12 1.05 1.04 1.04 1.07 1.10 1.18 1.28 1.31 1.39 1.35 1.40 1.38 1.38 1.39 1.37 1.28 1.21
1.44 1.49 1.53 1.54 1.54 1.56 1.60 1.63 1.64 1.66 1.70 1.71 1.70 1.67 1.62 1.53 1.47 1.46 1.47 1.48 1.47 1.45 1.47 1.49 1.52 1.53 1.50 1.48 1.52 1.57 1.57 1.59 1.57 1.54 1.50 1.47 1.46 1.45 1.44 1.43 1.41 1.38 1.38 1.36 1.32 1.26 1.24 1.20 1.19 1.21 1.27 1.30 1.31 1.33 1.35 1.34 1.32 1.31 1.29 1.28 1.26 1.27 1.27 1.26 1.24 1.23 1.24 1.18 1.13 1.05 1.11 1.15 1.09 1.18 1.31 1.38 1.38 1.36 1.39 1.38 1.42 1.39 1.40 1.36 1.35
1.29 1.42 1.46 1.51 1.55 1.53 1.52 1.54 1.58 1.63 1.68 1.70 1.68 1.65 1.63 1.61 1.56 1.51 1.48 1.44 1.42 1.41 1.43 1.45 1.49 1.51 1.51 1.49 1.49 1.53 1.58 1.64 1.63 1.62 1.60 1.59 1.58 1.57 1.55 1.54 1.53 1.53 1.54 1.54 1.52 1.49 1.46 1.43 1.37 1.31 1.30 1.30 1.32 1.33 1.34 1.34 1.34 1.31 1.28 1.25 1.25 1.26 1.27 1.27 1.26 1.26 1.25 1.22 1.19 1.17 1.18 1.22 1.20 1.25 1.33 1.41 1.42 1.46 1.49 1.46 1.47 1.46 1.50 1.55 1.52
1.16 1.28 1.36 1.42 1.48 1.52 1.51 1.49 1.50 1.54 1.57 1.59 1.59 1.59 1.61 1.62 1.59 1.57 1.50 1.48 1.49 1.49 1.51 1.50 1.47 1.47 1.50 1.51 1.49 1.47 1.56 1.66 1.66 1.66 1.66 1.65 1.67 1.65 1.63 1.60 1.57 1.57 1.59 1.61 1.63 1.64 1.63 1.59 1.52 1.45 1.42 1.39 1.39 1.39 1.40 1.42 1.38 1.34 1.29 1.28 1.28 1.31 1.31 1.32 1.32 1.33 1.32 1.28 1.24 1.22 1.25 1.27 1.29 1.28 1.34 1.42 1.48 1.54 1.58 1.61 1.60 1.56 1.50 1.42 1.35
1.07 1.15 1.26 1.36 1.44 1.50 1.52 1.52 1.52 1.53 1.55 1.55 1.53 1.56 1.60 1.66 1.67 1.65 1.52 1.49 1.49 1.49 1.47 1.46 1.48 1.49 1.51 1.54 1.50 1.49 1.52 1.59 1.63 1.66 1.68 1.71 1.72 1.68 1.66 1.65 1.62 1.58 1.57 1.62 1.67 1.70 1.70 1.69 1.65 1.59 1.54 1.50 1.50 1.48 1.47 1.48 1.41 1.35 1.32 1.27 1.26 1.26 1.25 1.34 1.39 1.39 1.37 1.36 1.33 1.30 1.32 1.35 1.35 1.35 1.37 1.41 1.48 1.55 1.57 1.50 1.45 1.52 1.44 1.35 1.36
1.04 1.10 1.20 1.31 1.41 1.49 1.54 1.56 1.54 1.54 1.54 1.52 1.52 1.57 1.64 1.70 1.69 1.69 1.56 1.50 1.50 1.52 1.53 1.52 1.55 1.55 1.54 1.53 1.53 1.50 1.51 1.58 1.59 1.62 1.66 1.70 1.72 1.70 1.69 1.68 1.64 1.62 1.60 1.64 1.71 1.77 1.79 1.76 1.73 1.67 1.61 1.58 1.61 1.58 1.56 1.56 1.49 1.43 1.37 1.32 1.26 1.22 1.21 1.28 1.34 1.37 1.38 1.38 1.38 1.35 1.34 1.35 1.38 1.39 1.39 1.40 1.42 1.52 1.50 1.40 1.50 1.53 1.43 1.40 1.30
1.03 1.06 1.16 1.32 1.43 1.51 1.57 1.59 1.58 1.55 1.53 1.55 1.59 1.57 1.59 1.62 1.68 1.71 1.62 1.55 1.51 1.57 1.60 1.57 1.57 1.59 1.58 1.57 1.60 1.57 1.56 1.60 1.61 1.58 1.60 1.65 1.71 1.75 1.76 1.74 1.68 1.65 1.67 1.69 1.75 1.78 1.81 1.84 1.81 1.78 1.75 1.74 1.73 1.67 1.62 1.58 1.52 1.48 1.40 1.35 1.27 1.21 1.20 1.24 1.25 1.25 1.27 1.32 1.34 1.35 1.35 1.36 1.38 1.39 1.40 1.41 1.43 1.50 1.55 1.56 1.61 1.54 1.44 1.42 1.37
1.08 1.14 1.21 1.33 1.42 1.50 1.58 1.61 1.60 1.57 1.56 1.60 1.63 1.60 1.66 1.68 1.67 1.68 1.65 1.60 1.54 1.54 1.57 1.57 1.56 1.58 1.62 1.62 1.61 1.61 1.61 1.63 1.64 1.62 1.62 1.65 1.71 1.77 1.81 1.74 1.65 1.66 1.74 1.76 1.75 1.78 1.79 1.80 1.83 1.83 1.82 1.83 1.82 1.76 1.70 1.65 1.57 1.53 1.50 1.37 1.27 1.20 1.29 1.34 1.28 1.25 1.23 1.26 1.29 1.32 1.32 1.35 1.37 1.40 1.41 1.41 1.42 1.47 1.53 1.61 1.63 1.60 1.53 1.48 1.43
1.17 1.19 1.22 1.31 1.39 1.47 1.56 1.61 1.59 1.61 1.65 1.62 1.65 1.67 1.68 1.65 1.67 1.66 1.63 1.61 1.57 1.52 1.51 1.52 1.53 1.57 1.64 1.67 1.65 1.65 1.65 1.65 1.69 1.70 1.72 1.76 1.80 1.82 1.83 1.80 1.77 1.78 1.79 1.79 1.78 1.76 1.76 1.78 1.81 1.85 1.85 1.87 1.88 1.86 1.81 1.76 1.71 1.66 1.60 1.48 1.39 1.37 1.46 1.41 1.36 1.34 1.31 1.28 1.28 1.31 1.34 1.37 1.38 1.38 1.38 1.39 1.40 1.44 1.49 1.58 1.64 1.66 1.63 1.56 1.49
1.20 1.24 1.24 1.27 1.35 1.45 1.52 1.59 1.60 1.60 1.65 1.68 1.66 1.65 1.69 1.71 1.68 1.65 1.65 1.62 1.56 1.54 1.53 1.52 1.50 1.53 1.59 1.65 1.68 1.71 1.76 1.77 1.79 1.81 1.84 1.86 1.87 1.89 1.88 1.88 1.92 1.90 1.85 1.81 1.79 1.76 1.75 1.79 1.80 1.82 1.84 1.83 1.85 1.88 1.87 1.84 1.82 1.82 1.77 1.71 1.69 1.70 1.64 1.60 1.56 1.49 1.41 1.35 1.30 1.28 1.29 1.32 1.33 1.34 1.35 1.36 1.36 1.38 1.45 1.53 1.65 1.73 1.78 1.77 1.63
1.20 1.23 1.27 1.28 1.34 1.46 1.53 1.52 1.54 1.57 1.60 1.66 1.67 1.64 1.69 1.69 1.68 1.67 1.63 1.63 1.61 1.57 1.57 1.57 1.55 1.53 1.57 1.61 1.68 1.75 1.84 1.91 1.93 1.91 1.90 1.90 1.90 1.91 1.92 1.92 1.95 1.95 1.84 1.76 1.75 1.76 1.82 1.82 1.82 1.84 1.84 1.83 1.84 1.86 1.85 1.84 1.86 1.84 1.80 1.81 1.82 1.84 1.85 1.80 1.72 1.62 1.50 1.40 1.33 1.26 1.25 1.27 1.28 1.30 1.31 1.32 1.33 1.34 1.42 1.52 1.63 1.74 1.79 1.80 1.72
1.22 1.23 1.27 1.31 1.36 1.44 1.49 1.50 1.53 1.56 1.59 1.65 1.68 1.65 1.65 1.67 1.69 1.67 1.65 1.63 1.61 1.58 1.59 1.60 1.58 1.54 1.55 1.62 1.70 1.79 1.88 1.93 1.96 1.93 1.90 1.90 1.91 1.90 1.88 1.86 1.88 1.86 1.85 1.79 1.80 1.83 1.81 1.82 1.85 1.86 1.84 1.81 1.82 1.82 1.84 1.86 1.84 1.80 1.79 1.80 1.83 1.86 1.86 1.83 1.80 1.74 1.65 1.51 1.36 1.29 1.25 1.27 1.28 1.28 1.29 1.34 1.39 1.41 1.47 1.55 1.66 1.72 1.73 1.73 1.70
1.24 1.23 1.26 1.31 1.36 1.43 1.50 1.52 1.56 1.59 1.65 1.68 1.66 1.65 1.64 1.65 1.62 1.65 1.65 1.62 1.60 1.57 1.60 1.64 1.63 1.64 1.66 1.66 1.70 1.76 1.83 1.89 1.92 1.95 1.94 1.90 1.88 1.85 1.81 1.81 1.81 1.83 1.79 1.80 1.82 1.81 1.83 1.87 1.87 1.87 1.86 1.81 1.77 1.78 1.76 1.73 1.72 1.71 1.73 1.77 1.82 1.84 1.82 1.80 1.78 1.78 1.71 1.59 1.47 1.39 1.34 1.33 1.32 1.34 1.39 1.41 1.47 1.54 1.55 1.60 1.66 1.69 1.74 1.77 1.73
1.32 1.31 1.32 1.35 1.37 1.41 1.46 1.52 1.60 1.63 1.68 1.73 1.72 1.71 1.66 1.64 1.60 1.62 1.63 1.61 1.60 1.59 1.63 1.67 1.68 1.69 1.69 1.71 1.72 1.76 1.81 1.87 1.88 1.97 1.93 1.85 1.77 1.75 1.74 1.74 1.76 1.80 1.83 1.83 1.85 1.87 1.89 1.90 1.89 1.87 1.85 1.82 1.78 1.72 1.68 1.66 1.65 1.67 1.68 1.71 1.73 1.75 1.76 1.77 1.77 1.74 1.69 1.67 1.63 1.54 1.49 1.47 1.44 1.45 1.48 1.48 1.47 1.46 1.50 1.53 1.57 1.62 1.69 1.65 1.60
1.44 1.42 1.38 1.37 1.39 1.41 1.43 1.47 1.56 1.66 1.72 1.74 1.76 1.74 1.74 1.72 1.68 1.66 1.65 1.65 1.66 1.69 1.70 1.68 1.67 1.68 1.67 1.70 1.73 1.76 1.77 1.85 1.94 1.81 1.79 1.84 1.81 1.81 1.82 1.81 1.83 1.84 1.83 1.85 1.85 1.85 1.88 1.91 1.89 1.88 1.87 1.86 1.83 1.78 1.73 1.70 1.66 1.65 1.66 1.69 1.70 1.71 1.72 1.73 1.72 1.71 1.72 1.73 1.72 1.69 1.67 1.66 1.66 1.61 1.52 1.49 1.46 1.49 1.54 1.55 1.55 1.57 1.60 1.57 1.50
1.47 1.47 1.46 1.45 1.44 1.45 1.47 1.52 1.57 1.65 1.73 1.75 1.75 1.74 1.76 1.78 1.73 1.72 1.69 1.69 1.67 1.67 1.66 1.64 1.63 1.64 1.65 1.69 1.72 1.74 1.80 1.81 1.68 1.67 1.70 1.72 1.73 1.73 1.78 1.79 1.79 1.80 1.79 1.80 1.81 1.82 1.83 1.82 1.80 1.75 1.73 1.72 1.70 1.65 1.59 1.57 1.57 1.56 1.57 1.61 1.65 1.73 1.79 1.83 1.85 1.86 1.83 1.81 1.82 1.83 1.81 1.76 1.66 1.60 1.60 1.59 1.55 1.56 1.57 1.55 1.54 1.58 1.60 1.56 1.43
1.50 1.51 1.55 1.57 1.54 1.56 1.58 1.60 1.66 1.66 1.73 1.71 1.73 1.71 1.73 1.73 1.76 1.73 1.80 1.84 1.83 1.78 1.74 1.74 1.76 1.79 1.77 1.75 1.73 1.72 1.71 1.67 1.69 1.76 1.73 1.70 1.68 1.65 1.59 1.55 1.56 1.58 1.61 1.56 1.51 1.54 1.57 1.55 1.51 1.50 1.50 1.48 1.48 1.47 1.47 1.48 1.49 1.53 1.53 1.55 1.63 1.71 1.78 1.82 1.83 1.84 1.93 2.00 1.90 1.84 1.79 1.77 1.74 1.74 1.71 1.67 1.66 1.66 1.68 1.64 1.65 1.59 1.60 1.55 1.41
1.49 1.51 1.54 1.58 1.61 1.63 1.65 1.67 1.71 1.73 1.68 1.62 1.61 1.65 1.78 1.82 1.80 1.74 1.74 1.81 1.87 1.92 1.91 1.82 1.80 1.80 1.74 1.75 1.76 1.71 1.68 1.70 1.71 1.66 1.59 1.54 1.48 1.47 1.43 1.41 1.35 1.28 1.24 1.22 1.18 1.13 1.14 1.16 1.17 1.20 1.22 1.25 1.26 1.28 1.31 1.37 1.42 1.46 1.49 1.53 1.59 1.66 1.75 1.80 1.85 1.91 2.00 1.97 1.94 1.92 1.92 1.87 1.79 1.75 1.75 1.68 1.66 1.70 1.72 1.69 1.63 1.61 1.50 1.44 1.36
1.55 1.58 1.59 1.59 1.61 1.64 1.66 1.72 1.78 1.84 1.75 1.71 1.66 1.60 1.60 1.67 1.71 1.73 1.77 1.80 1.81 1.80 1.80 1.80 1.81 1.81 1.77 1.70 1.71 1.71 1.67 1.59 1.50 1.42 1.38 1.35 1.34 1.31 1.28 1.22 1.17 1.11 1.05 0.99 0.95 0.91 0.87 0.87 0.89 0.94 0.98 1.02 1.03 1.03 1.07 1.13 1.17 1.19 1.23 1.29 1.35 1.42 1.54 1.68 1.81 1.82 1.78 1.78 1.85 1.91 1.96 1.96 1.86 1.79 1.71 1.69 1.67 1.65 1.65 1.69 1.68 1.61 1.56 1.45 1.35
1.55 1.60 1.62 1.65 1.68 1.72 1.77 1.78 1.82 1.83 1.79 1.76 1.70 1.65 1.60 1.57 1.61 1.69 1.69 1.69 1.71 1.70 1.68 1.68 1.66 1.63 1.60 1.55 1.48 1.41 1.38 1.34 1.28 1.21 1.15 1.10 1.05 1.01 0.99 1.01 1.01 0.99 0.98 0.97 0.90 0.90 0.92 0.90 0.89 0.90 0.93 0.95 0.97 1.04 1.09 1.12 1.18 1.23 1.26 1.26 1.26 1.26 1.27 1.29 1.37 1.48 1.58 1.67 1.66 1.68 1.78 1.78 1.80 1.85 1.85 1.78 1.69 1.66 1.68 1.65 1.66 1.63 1.54 1.47 1.37
1.46 1.47 1.56 1.63 1.66 1.67 1.67 1.67 1.70 1.74 1.73 1.64 1.60 1.63 1.58 1.55 1.50 1.49 1.57 1.61 1.58 1.54 1.51 1.46 1.43 1.39 1.35 1.30 1.25 1.16 1.08 1.04 1.00 0.99 0.98 0.98 0.98 1.00 1.02 1.05 1.05 1.00 0.98 0.94 0.91 0.90 0.92 0.93 0.92 0.94 0.96 0.96 0.99 1.02 1.05 1.10 1.15 1.20 1.26 1.28 1.29 1.31 1.36 1.46 1.57 1.63 1.68 1.76 1.82 1.83 1.83 1.83 1.79 1.77 1.83 1.84 1.74 1.67 1.69 1.67 1.61 1.58 1.53 1.44 1.41
1.45 1.47 1.49 1.53 1.57 1.61 1.63 1.61 1.61 1.61 1.65 1.62 1.57 1.48 1.41 1.42 1.43 1.41 1.35 1.30 1.29 1.29 1.28 1.25 1.19 1.15 1.09 1.04 1.01 1.00 0.99 0.99 0.96 0.96 0.95 0.96 0.98 1.00 0.99 1.01 1.05 1.03 1.00 0.97 0.96 0.94 0.97 0.97 0.98 0.99 1.01 1.03 1.05 1.07 1.07 1.09 1.12 1.16 1.22 1.28 1.35 1.42 1.49 1.58 1.62 1.65 1.71 1.73 1.77 1.85 1.83 1.85 1.86 1.83 1.83 1.86 1.82 1.74 1.64 1.60 1.56 1.51 1.46 1.43 1.39
1.39 1.42 1.46 1.47 1.48 1.47 1.51 1.51 1.49 1.48 1.49 1.47 1.43 1.33 1.22 1.21 1.22 1.24 1.26 1.22 1.14 1.08 1.05 1.05 1.08 1.08 1.03 1.00 0.99 0.97 0.97 0.97 0.98 0.98 0.99 0.99 0.99 1.00 1.02 1.01 0.99 0.99 1.00 1.02 1.03 1.02 1.01 1.01 1.01 1.03 1.06 1.05 1.07 1.10 1.10 1.12 1.13 1.14 1.17 1.22 1.31 1.39 1.47 1.53 1.57 1.64 1.71 1.80 1.93 2.01 2.00 1.96 1.94 1.93 1.86 1.80 1.71 1.63 1.62 1.60 1.54 1.51 1.44 1.40 1.38
1.23 1.22 1.26 1.30 1.32 1.32 1.32 1.33 1.36 1.37 1.36 1.35 1.31 1.25 1.21 1.14 1.09 1.10 1.11 1.11 1.09 1.08 1.10 1.10 1.09 1.10 1.09 1.07 1.03 1.02 1.02 1.03 1.03 1.04 1.03 1.04 1.03 1.04 0.97 0.97 0.98 1.00 1.02 1.07 1.09 1.11 1.11 1.10 1.09 1.10 1.13 1.14 1.15 1.16 1.18 1.17 1.18 1.21 1.26 1.30 1.32 1.38 1.46 1.56 1.71 1.84 1.95 2.03 2.05 2.03 1.99 1.94 1.89 1.86 1.89 1.84 1.76 1.69 1.66 1.60 1.56 1.50 1.45 1.40 1.39
1.20 1.19 1.18 1.19 1.20 1.22 1.22 1.21 1.19 1.21 1.21 1.20 1.17 1.13 1.11 1.10 1.10 1.09 1.04 0.97 0.98 1.04 1.10 1.10 1.11 1.13 1.12 1.10 1.08 1.07 1.05 1.06 1.05 1.07 1.08 1.09 1.09 1.07 1.07 1.06 1.03 1.04 1.05 1.08 1.12 1.12 1.11 1.12 1.16 1.17 1.18 1.17 1.17 1.19 1.21 1.23 1.27 1.31 1.35 1.37 1.38 1.39 1.45 1.60 1.76 1.90 1.96 2.00 2.09 2.04 1.91 1.91 1.91 1.88 1.85 1.76 1.73 1.68 1.64 1.58 1.53 1.49 1.44 1.42 1.40
1.28 1.24 1.17 1.14 1.11 1.10 1.10 1.09 1.09 1.07 1.07 1.10 1.12 1.10 1.05 1.01 1.02 1.03 1.04 1.01 0.98 1.03 1.03 1.05 1.04 1.03 1.01 0.99 1.06 1.05 1.03 1.07 1.08 1.09 1.12 1.13 1.11 1.07 1.08 1.09 1.10 1.08 1.08 1.11 1.14 1.12 1.11 1.15 1.18 1.17 1.17 1.18 1.19 1.22 1.25 1.27 1.31 1.34 1.36 1.38 1.42 1.47 1.55 1.58 1.73 1.82 1.93 1.96 1.95 1.86 1.91 1.92 1.85 1.83 1.82 1.74 1.67 1.63 1.58 1.57 1.53 1.43 1.44 1.40 1.38
1.20 1.17 1.14 1.13 1.13 1.12 1.12 1.13 1.14 1.14 1.10 1.09 1.08 1.11 1.09 1.09 1.08 1.08 1.08 1.07 1.06 1.03 1.04 1.04 1.06 1.05 1.05 1.06 1.04 1.09 1.05 1.01 1.01 1.01 1.05 1.08 1.11 1.10 1.08 1.09 1.09 1.11 1.12 1.13 1.13 1.13 1.12 1.15 1.20 1.22 1.22 1.22 1.23 1.24 1.25 1.26 1.31 1.34 1.37 1.40 1.44 1.49 1.55 1.59 1.77 1.89 1.94 1.92 1.88 1.89 1.86 1.80 1.82 1.81 1.79 1.67 1.60 1.58 1.56 1.53 1.49 1.44 1.39 1.37 1.32
1.11 1.10 1.10 1.10 1.11 1.14 1.14 1.12 1.13 1.13 1.13 1.10 1.08 1.09 1.08 1.10 1.10 1.10 1.10 1.09 1.07 1.05 1.08 1.06 1.06 1.09 1.11 1.10 1.07 1.08 1.03 1.04 1.06 1.06 1.05 1.06 1.08 1.09 1.08 1.06 1.06 1.09 1.11 1.14 1.16 1.16 1.15 1.18 1.24 1.25 1.24 1.24 1.25 1.26 1.29 1.29 1.29 1.31 1.33 1.34 1.40 1.47 1.60 1.76 1.84 1.87 1.84 1.85 1.88 1.77 1.76 1.73 1.70 1.74 1.73 1.68 1.63 1.59 1.55 1.49 1.46 1.42 1.39 1.33 1.27
1.15 1.16 1.17 1.18 1.19 1.19 1.13 1.09 1.12 1.11 1.12 1.18 1.17 1.12 1.08 1.09 1.09 1.08 1.06 1.04 1.04 1.06 1.07 1.09 1.12 1.18 1.19 1.16 1.14 1.13 1.11 1.11 1.11 1.09 1.07 1.06 1.08 1.08 1.08 1.09 1.08 1.08 1.13 1.17 1.20 1.23 1.24 1.23 1.26 1.29 1.29 1.28 1.29 1.29 1.30 1.29 1.30 1.35 1.38 1.34 1.36 1.46 1.63 1.78 1.85 1.87 1.88 1.77 1.68 1.67 1.71 1.72 1.73 1.68 1.63 1.63 1.58 1.52 1.49 1.46 1.44 1.42 1.37 1.32 1.30
1.25 1.23 1.22 1.23 1.26 1.21 1.15 1.18 1.17 1.21 1.22 1.18 1.11 1.11 1.12 1.14 1.13 1.11 1.09 1.10 1.12 1.12 1.12 1.14 1.21 1.22 1.22 1.19 1.17 1.18 1.17 1.18 1.16 1.11 1.10 1.10 1.09 1.11 1.11 1.12 1.13 1.12 1.15 1.20 1.26 1.29 1.31 1.31 1.30 1.31 1.31 1.32 1.32 1.32 1.32 1.31 1.33 1.35 1.35 1.36 1.36 1.36 1.30 1.43 1.53 1.60 1.64 1.66 1.72 1.70 1.71 1.71 1.68 1.66 1.62 1.57 1.54 1.52 1.48 1.42 1.41 1.40 1.37 1.34 1.29
1.29 1.26 1.26 1.27 1.26 1.25 1.24 1.24 1.25 1.24 1.21 1.23 1.21 1.21 1.25 1.24 1.22 1.21 1.20 1.22 1.21 1.19 1.17 1.18 1.20 1.23 1.22 1.24 1.25 1.25 1.25 1.23 1.19 1.17 1.14 1.13 1.13 1.14 1.14 1.13 1.14 1.17 1.21 1.25 1.32 1.37 1.36 1.33 1.33 1.34 1.34 1.37 1.39 1.40 1.38 1.34 1.34 1.39 1.37 1.34 1.36 1.37 1.36 1.33 1.33 1.39 1.50 1.58 1.63 1.67 1.66 1.63 1.65 1.61 1.57 1.54 1.51 1.47 1.42 1.40 1.39 1.36 1.29 1.24 1.19
1.25 1.24 1.25 1.28 1.28 1.27 1.30 1.31 1.28 1.26 1.26 1.26 1.26 1.25 1.25 1.24 1.26 1.25 1.26 1.26 1.26 1.26 1.25 1.24 1.24 1.25 1.27 1.33 1.32 1.29 1.23 1.21 1.21 1.19 1.19 1.19 1.18 1.18 1.19 1.20 1.18 1.18 1.21 1.25 1.31 1.38 1.38 1.36 1.34 1.37 1.40 1.41 1.47 1.51 1.51 1.49 1.43 1.40 1.44 1.42 1.38 1.39 1.41 1.42 1.43 1.46 1.49 1.51 1.57 1.61 1.64 1.62 1.61 1.57 1.51 1.47 1.43 1.40 1.37 1.35 1.32 1.25 1.16 1.13 1.14
1.31 1.30 1.28 1.26 1.27 1.27 1.26 1.27 1.27 1.25 1.25 1.25 1.24 1.25 1.25 1.26 1.25 1.25 1.26 1.26 1.27 1.30 1.33 1.33 1.33 1.31 1.30 1.31 1.29 1.24 1.22 1.22 1.22 1.21 1.22 1.23 1.23 1.24 1.25 1.24 1.21 1.19 1.22 1.26 1.32 1.39 1.40 1.40 1.38 1.37 1.40 1.43 1.44 1.46 1.50 1.56 1.54 1.49 1.50 1.50 1.45 1.45 1.49 1.51 1.55 1.61 1.63 1.58 1.56 1.55 1.54 1.55 1.52 1.48 1.44 1.42 1.41 1.41 1.35 1.30 1.21 1.15 1.12 1.11 1.09
1.29 1.28 1.27 1.24 1.23 1.23 1.23 1.22 1.22 1.21 1.19 1.18 1.16 1.15 1.15 1.17 1.18 1.21 1.24 1.25 1.26 1.27 1.28 1.30 1.31 1.32 1.30 1.29 1.26 1.24 1.24 1.22 1.22 1.25 1.26 1.26 1.26 1.27 1.28 1.25 1.24 1.24 1.25 1.28 1.34 1.40 1.43 1.43 1.40 1.36 1.37 1.38 1.39 1.41 1.45 1.48 1.50 1.55 1.58 1.57 1.55 1.55 1.56 1.60 1.61 1.57 1.54 1.51 1.48 1.46 1.45 1.44 1.44 1.44 1.43 1.41 1.37 1.28 1.19 1.16 1.16 1.18 1.16 1.11 1.05
1.26 1.25 1.24 1.25 1.24 1.23 1.22 1.21 1.20 1.20 1.20 1.17 1.14 1.11 1.10 1.10 1.12 1.15 1.16 1.17 1.19 1.20 1.21 1.23 1.24 1.24 1.24 1.21 1.19 1.19 1.20 1.20 1.20 1.23 1.25 1.27 1.29 1.29 1.28 1.26 1.26 1.27 1.29 1.30 1.36 1.40 1.41 1.40 1.39 1.38 1.36 1.37 1.38 1.38 1.38 1.41 1.46 1.48 1.49 1.51 1.52 1.55 1.54 1.56 1.57 1.55 1.53 1.51 1.49 1.45 1.40 1.36 1.33 1.30 1.28 1.26 1.23 1.22 1.21 1.19 1.16 1.12 1.09 1.05 1.02
1.22 1.21 1.19 1.18 1.17 1.13 1.12 1.12 1.11 1.11 1.10 1.09 1.09 1.08 1.08 1.09 1.10 1.11 1.12 1.12 1.12 1.12 1.13 1.13 1.13 1.13 1.12 1.12 1.13 1.13 1.15 1.19 1.21 1.23 1.27 1.29 1.31 1.33 1.31 1.30 1.30 1.31 1.32 1.33 1.35 1.38 1.40 1.42 1.41 1.39 1.37 1.37 1.38 1.37 1.37 1.39 1.42 1.43 1.45 1.47 1.47 1.48 1.50 1.50 1.49 1.47 1.46 1.45 1.45 1.42 1.38 1.33 1.31 1.29 1.28 1.26 1.24 1.22 1.16 1.10 1.07 1.04 1.01 0.99 0.98
1.11 1.10 1.09 1.09 1.07 1.06 1.05 1.04 1.03 1.02 1.02 1.03 1.02 1.02 1.03 1.04 1.05 1.06 1.07 1.07 1.06 1.04 1.02 1.00 1.00 1.02 1.03 1.05 1.08 1.09 1.11 1.14 1.16 1.19 1.22 1.28 1.32 1.33 1.34 1.32 1.33 1.34 1.34 1.34 1.35 1.35 1.37 1.39 1.40 1.40 1.38 1.37 1.40 1.38 1.38 1.38 1.38 1.39 1.40 1.42 1.43 1.43 1.45 1.46 1.46 1.45 1.44 1.46 1.43 1.39 1.36 1.30 1.26 1.24 1.22 1.18 1.15 1.12 1.08 1.04 1.01 0.99 0.98 0.97 0.94
1.07 1.06 1.06 1.05 1.04 1.03 1.05 1.05 1.06 1.07 1.08 1.08 1.08 1.08 1.09 1.09 1.09 1.09 1.08 1.07 1.05 1.02 1.00 0.99 0.97 0.96 0.95 0.96 0.98 1.01 1.04 1.07 1.11 1.15 1.19 1.23 1.28 1.32 1.36 1.37 1.32 1.32 1.32 1.31 1.31 1.30 1.30 1.31 1.32 1.32 1.33 1.33 1.33 1.34 1.35 1.35 1.35 1.35 1.37 1.39 1.42 1.43 1.42 1.41 1.40 1.39 1.38 1.39 1.34 1.26 1.22 1.18 1.15 1.12 1.09 1.07 1.05 1.02 1.00 0.99 0.98 0.96 0.94 0.91 0.87
1.04 1.04 1.05 1.05 1.06 1.07 1.06 1.06 1.07 1.08 1.08 1.08 1.10 1.10 1.09 1.08 1.08 1.07 1.05 1.03 1.01 1.00 1.00 0.99 0.98 0.97 0.95 0.96 0.97 0.98 0.99 1.01 1.06 1.10 1.15 1.22 1.27 1.31 1.33 1.36 1.36 1.34 1.33 1.31 1.30 1.28 1.25 1.23 1.24 1.26 1.26 1.26 1.26 1.25 1.24 1.24 1.25 1.26 1.25 1.25 1.25 1.24 1.23 1.25 1.25 1.23 1.21 1.19 1.18 1.14 1.10 1.05 1.02 1.00 0.99 0.97 0.96 0.94 0.93 0.92 0.91 0.89 0.85 0.81 0.77
Wind_Speed
26 27 27 26 26 26 26 26 25 25 24 24 23 23 22 22 21 20 20 19 19 19 19 18 17 17 17 17 17 17 17 17 16 16 16 16 16 15 15 16 16 16 15 15 15 15 14 14 13 13 12 11 11 11 10 10 10 10 10 9 9 9 8 8 9 9 9 9 10 10 10 10 11 11 11 11 11 12 13 14 14 14 15 15 15
26 26 26 26 26 27 26 26 25 25 24 24 24 23 23 22 22 21 20 20 20 19 19 19 19 18 18 18 18 17 17 17 17 17 17 17 17 17 17 17 17 17 17 17 16 16 16 16 15 14 13 13 13 12 12 12 11 11 11 11 10 10 10 10 10 10 10 10 10 10 10 10 11 11 12 12 12 13 14 15 15 15 15 15 15
26 26 26 26 26 26 26 26 25 25 25 24 24 24 23 23 22 22 21 21 20 20 20 19 19 19 19 19 19 19 18 18 18 18 18 18 17 17 17 18 18 18 18 18 18 17 17 17 17 16 15 15 14 14 14 13 13 12 12 12 12 11 11 10 10 10 10 10 10 10 10 10 11 11 12 13 13 14 15 15 15 15 15 15 16
26 25 26 26 26 26 26 26 25 25 25 24 24 24 24 23 23 23 22 21 21 21 21 20 20 20 20 19 19 19 19 19 19 19 19 18 18 18 18 18 19 19 19 19 19 18 18 18 18 18 17 16 16 16 15 15 14 14 13 13 13 12 12 11 11 11 11 11 11 11 11 11 12 12 13 14 14 14 15 15 15 16 16 16 16
25 25 25 26 26 26 26 26 25 26 25 25 25 25 24 24 23 23 23 23 22 21 21 21 21 21 21 20 20 20 20 20 20 20 19 19 19 19 19 19 19 19 20 20 20 19 19 19 19 19 18 18 17 17 17 16 16 15 15 15 14 14 13 13 13 12 12 12 12 12 12 12 12 13 14 14 15 15 15 15 16 16 16 16 16
25 25 25 26 26 26 26 26 26 26 26 25 25 25 25 24 24 23 23 23 23 22 22 22 21 21 21 21 21 21 21 20 20 20 20 20 20 20 20 20 20 20 20 20 20 20 20 20 20 20 20 19 19 18 18 18 18 17 17 16 16 16 15 15 14 14 14 14 14 14 13 13 13 14 14 15 15 16 16 16 17 17 17 17 17
25 25 25 25 25 26 26 27 27 27 26 26 25 25 25 25 24 23 23 23 23 23 22 22 22 22 22 22 22 21 21 21 21 21 21 20 20 20 20 20 20 20 20 21 21 21 21 21 21 21 21 21 20 20 19 19 19 19 19 18 18 18 17 17 16 16 16 16 16 16 15 15 15 15 15 16 16 16 16 17 17 17 17 17 17
25 25 25 25 25 25 26 27 27 27 27 26 26 25 25 25 24 23 23 23 23 23 23 23 22 22 22 22 22 22 22 22 21 21 21 21 21 21 21 21 21 21 21 21 22 22 22 23 22 22 22 22 22 21 21 21 20 21 20 20 20 19 19 19 18 18 18 18 18 18 17 17 17 17 16 16 16 17 17 17 18 18 17 18 18
25 25 25 26 25 26 26 26 26 27 27 27 26 26 25 25 24 24 23 23 23 23 22 22 22 22 22 22 22 22 22 22 22 22 22 22 22 22 22 22 21 21 21 22 22 22 23 23 23 23 23 24 24 23 23 23 22 22 22 22 21 21 21 21 20 20 20 19 19 19 19 19 19 18 18 18 18 18 19 19 19 19 19 19 19
24 25 25 26 25 26 26 26 25 26 27 26 26 26 26 25 24 24 24 23 23 22 22 22 22 23 22 22 22 22 22 23 23 24 23 23 23 23 22 22 22 22 22 22 22 23 23 24 24 24 25 25 25 25 25 25 24 24 24 23 23 23 23 22 22 22 22 21 21 21 20 21 21 20 20 20 20 20 19 20 20 20 20 20 20
23 24 24 25 25 25 26 26 26 26 26 26 26 26 26 25 25 24 24 24 23 23 22 22 22 22 22 22 22 23 23 23 24 24 24 24 23 23 22 22 22 22 22 22 23 23 24 24 25 25 25 25 26 26 27 26 26 26 26 25 25 25 25 25 24 24 24 23 23 23 22 23 22 22 22 22 21 21 21 21 21 21 21 21 21
22 23 23 24 24 25 25 26 26 26 26 26 26 26 26 26 25 25 24 24 24 23 22 22 22 22 22 22 22 22 23 23 23 24 24 24 23 23 22 22 22 22 23 23 23 24 24 25 25 25 26 26 27 27 28 28 28 28 27 27 28 28 27 27 26 26 26 25 25 25 25 25 24 24 23 23 23 23 22 22 22 22 22 22 22
22 22 23 23 23 24 25 25 26 26 26 26 26 26 26 26 26 25 25 24 24 24 23 23 23 23 22 22 22 22 22 22 22 23 23 23 23 23 22 22 22 23 23 23 24 24 25 25 25 26 26 27 27 28 28 29 29 29 29 29 29 30 30 30 29 28 28 28 27 27 27 26 26 26 25 25 24 24 24 23 23 23 23 24 24
22 22 23 23 23 24 24 25 26 26 26 26 26 26 26 26 26 26 25 25 25 25 24 24 23 23 23 22 22 21 21 21 21 22 22 22 23 22 22 22 22 23 23 23 24 24 25 25 26 26 26 26 27 28 29 29 30 30 31 31 31 31 32 32 31 31 30 30 30 30 29 29 28 28 27 26 26 26 26 25 25 25 25 25 25
23 23 23 23 23 23 24 25 26 26 27 27 27 27 27 27 27 26 26 26 26 25 25 25 24 24 24 23 22 22 21 21 21 21 22 22 22 22 23 23 23 23 24 24 24 25 25 25 26 26 27 27 27 28 29 29 30 31 32 32 33 33 33 33 33 33 33 33 33 32 32 31 31 30 29 29 28 28 28 27 27 27 27 27 26
25 24 24 24 24 23 23 24 25 26 27 27 28 28 27 27 27 27 26 26 26 25 25 25 25 24 24 23 23 22 22 22 21 22 22 23 23 23 24 24 25 25 25 25 26 26 26 27 27 28 28 29 29 30 30 31 31 32 33 34 34 35 35 35 35 36 36 36 36 35 34 33 33 32 31 30 30 29 29 28 28 28 27 27 27
26 25 25 25 25 24 24 23 24 25 26 27 28 28 28 27 27 27 27 26 25 25 25 25 25 24 24 24 23 23 23 23 23 23 23 24 24 24 25 26 27 27 28 28 28 28 28 29 29 29 30 30 31 31 32 32 33 33 34 35 36 36 36 36 37 38 38 38 38 38 37 36 35 34 33 33 32 30 29 29 29 29 28 28 28
27 26 25 25 25 24 24 23 23 24 24 25 26 27 27 27 27 27 27 26 25 25 24 24 24 24 24 24 24 24 24 24 24 25 25 25 25 26 27 28 29 29 30 30 30 30 30 30 31 31 31 32 32 32 33 33 34 34 35 36 36 37 37 37 37 38 40 40 40 40 39 38 37 36 35 35 34 33 32 31 31 31 30 30 30
27 26 25 24 24 25 24 23 23 23 23 23 24 25 26 26 26 26 26 26 25 24 23 23 23 24 24 25 25 25 25 25 26 26 27 27 28 28 29 30 30 31 31 31 32 32 32 32 32 33 33 33 33 33 34 35 35 35 36 36 37 38 38 38 38 39 39 40 41 40 40 39 38 37 37 36 35 35 34 33 33 33 33 32 31
26 26 25 24 24 25 24 23 23 23 23 22 23 24 24 25 25 25 25 25 25 24 24 23 23 23 24 24 25 25 26 26 26 27 27 28 29 30 30 31 31 32 32 32 33 33 33 33 33 34 35 35 35 35 35 36 37 37 37 38 39 39 39 39 40 40 40 40 41 41 40 40 39 39 38 38 37 37 36 36 35 35 34 34 33
26 26 25 25 24 25 24 24 23 23 23 22 22 23 23 24 24 24 24 24 24 24 24 24 23 23 23 24 24 25 26 26 26 26 27 28 29 30 31 31 31 32 32 33 33 34 34 34 35 35 36 37 38 37 37 38 39 39 40 40 41 41 41 41 42 42 42 42 42 41 41 40 40 40 40 39 39 38 38 38 37 36 36 34 33
26 26 26 25 25 25 25 25 24 24 23 23 22 22 22 23 24 24 24 23 24 24 24 24 24 24 23 24 24 25 25 26 26 27 27 28 29 30 31 31 32 32 33 34 34 34 35 35 36 37 37 38 39 39 40 41 41 42 42 43 43 43 43 43 43 43 43 43 42 42 42 41 41 41 40 40 39 39 38 38 38 37 36 35 34
24 25 26 26 26 25 25 25 25 25 24 23 23 22 22 23 23 23 24 23 23 23 24 24 24 24 24 24 25 25 25 26 27 27 28 29 29 31 32 32 33 33 34 34 35 35 36 36 37 38 38 39 39 41 42 42 43 44 45 45 45 45 44 44 44 44 43 43 43 43 42 42 42 41 41 41 40 39 38 38 37 37 36 36 35
23 24 25 26 26 26 26 26 25 25 25 24 24 23 23 23 23 23 24 23 23 23 24 24 24 25 25 25 25 26 26 26 27 28 28 29 30 31 32 33 34 34 35 35 35 36 37 37 38 39 40 40 41 42 43 44 45 46 47 47 47 47 46 46 46 45 44 44 44 43 43 43 42 41 41 41 39 39 38 38 38 37 37 37 36
22 24 25 25 25 25 25 26 25 25 25 24 24 24 24 24 23 23 24 24 24 24 24 24 25 25 25 25 26 26 26 26 27 28 29 30 31 32 32 33 34 35 36 36 36 37 38 40 40 41 42 42 43 43 44 45 46 47 48 49 49 49 49 49 48 48 47 46 46 45 44 43 42 42 41 40 39 38 38 38 38 38 38 37 36
21 22 24 25 25 25 25 25 25 25 25 25 24 24 24 24 24 24 24 24 25 24 24 24 25 25 25 26 26 26 27 27 28 29 29 30 30 31 32 33 34 36 37 38 38 39 41 41 42 43 44 44 45 45 46 47 48 49 50 50 50 50 51 51 51 51 51 50 49 47 46 44 43 42 41 40 40 39 38 38 38 38 37 36 35
19 20 22 24 25 25 25 25 25 25 25 25 25 25 24 24 24 24 24 24 24 24 25 25 25 26 26 27 27 27 28 27 28 28 29 29 30 31 31 32 34 35 37 38 40 41 42 44 44 45 46 47 48 48 49 49 50 50 51 51 52 53 53 53 54 54 54 53 51 50 48 46 44 43 42 41 40 39 38 38 38 37 36 35 33
19 19 21 22 23 23 23 24 24 24 25 25 25 25 24 25 25 24 24 25 25 25 26 26 26 26 26 26 27 27 27 27 27 28 29 30 30 31 31 32 33 34 36 37 39 41 43 45 46 47 48 49 50 50 51 51 51 52 52 53 54 55 55 56 56 56 55 54 52 50 48 47 45 44 43 43 41 39 38 38 38 37 35 35 34
19 19 20 20 21 21 22 23 24 24 24 23 23 23 24 25 25 24 24 24 25 25 25 25 25 25 25 25 25 25 26 26 28 29 29 30 31 31 32 33 35 36 37 38 40 41 43 44 46 47 48 50 51 52 52 52 53 53 53 54 55 55 56 57 57 56 55 54 53 51 50 49 47 45 44 43 41 40 39 38 37 36 35 34 33
21 21 20 20 20 21 21 22 23 24 24 23 22 22 22 23 23 24 24 24 24 24 24 24 25 25 25 25 26 26 26 27 28 29 30 31 32 33 34 35 36 37 39 40 41 42 44 45 46 47 49 50 51 52 52 53 53 53 54 54 55 56 57 58 58 57 55 54 53 52 51 50 49 47 46 43 41 40 40 39 37 36 34 33 32
20 20 20 20 20 21 22 22 22 23 24 23 22 22 21 21 21 22 23 23 23 24 24 24 24 25 25 26 26 26 27 27 29 30 31 32 33 34 35 37 38 39 40 41 42 43 45 46 48 48 49 50 51 51 52 53 53 54 54 55 55 57 58 59 59 57 55 54 53 51 50 50 49 48 47 44 41 39 39 39 37 36 35 33 31
19 19 19 20 20 21 21 21 21 22 22 22 22 22 22 21 21 20 21 22 22 23 23 23 24 24 25 26 26 27 28 29 30 31 32 33 34 35 36 37 39 40 41 42 43 44 45 46 47 48 48 49 50 51 51 52 53 54 55 55 56 57 58 59 59 58 57 56 55 54 52 50 49 48 47 45 42 39 38 38 37 35 33 31 30
19 19 19 19 20 20 20 20 20 21 21 21 21 22 22 22 22 21 21 21 21 22 23 23 24 24 25 26 27 28 29 30 31 32 33 34 35 36 37 38 39 40 41 42 43 44 44 45 46 47 48 48 49 49 50 51 52 53 54 56 57 58 58 58 58 58 57 56 56 55 52 50 48 47 46 45 43 40 38 37 36 34 31 30 29
19 19 19 20 20 20 20 19 19 19 19 20 20 20 20 21 21 22 22 22 22 23 23 24 24 25 26 27 27 29 30 31 32 33 34 35 36 37 38 39 39 39 40 41 42 43 43 44 45 46 47 47 47 48 48 49 50 51 53 55 57 57 58 57 57 57 57 56 55 53 51 48 46 45 43 42 41 40 38 36 35 33 30 29 27
19 19 20 20 20 20 20 19 19 19 19 19 19 19 20 20 21 22 22 22 23 24 24 25 26 26 27 27 29 30 31 32 33 34 35 36 37 38 38 39 38 39 39 40 40 41 42 43 45 45 46 46 46 47 47 48 48 49 51 53 53 54 54 54 55 55 54 53 50 48 47 45 44 43 42 40 39 38 37 36 34 32 30 28 27
20 20 20 20 20 20 20 20 20 19 19 20 20 21 21 21 22 22 23 23 24 24 25 26 27 27 28 29 30 31 32 33 34 35 36 36 37 37 37 37 37 38 38 39 39 40 41 43 44 45 45 45 45 45 46 47 47 48 49 49 49 49 50 49 48 47 47 46 44 41 40 39 39 40 39 38 38 37 35 33 31 30 29 28 27
20 20 20 20 20 20 20 20 20 20 20 20 21 22 22 22 22 23 23 24 25 25 25 26 27 28 29 29 30 31 32 33 35 36 36 36 37 36 36 36 36 37 38 38 39 40 41 42 43 43 43 43 43 44 45 46 47 47 47 47 46 46 45 44 40 36 35 36 36 34 33 33 34 36 37 36 35 34 32 30 30 29 28 27 26
20 20 20 20 20 20 20 20 21 21 21 21 21 22 23 23 23 24 24 25 25 26 26 27 28 29 29 30 31 32 33 34 34 35 35 36 36 36 35 36 36 37 37 38 39 40 40 41 41 41 41 41 41 41 42 43 43 43 42 42 41 40 39 37 32 27 26 28 28 28 28 28 29 32 34 33 31 31 30 29 29 28 26 25 24
21 20 20 20 20 20 20 21 21 21 21 21 22 22 23 23 24 24 25 25 26 26 27 28 28 29 30 31 32 33 34 34 34 34 35 35 36 35 35 35 36 36 37 38 38 38 39 39 39 39 39 38 38 38 38 38 38 37 36 35 34 33 31 26 19 17 19 21 21 21 23 26 28 30 31 30 27 26 26 26 27 27 25 23 22
21 21 21 21 21 21 21 21 21 22 22 22 22 23 23 23 24 25 25 26 26 27 28 28 29 29 31 32 32 33 34 34 34 34 35 35 35 35 35 35 35 35 36 36 37 37 36 36 36 36 35 35 34 34 34 34 33 32 30 29 28 26 22 17 13 12 13 13 14 16 20 24 27 29 29 26 22 21 23 24 25 25 24 22 21
22 22 22 22 23 23 22 22 23 23 23 23 23 23 24 24 25 25 26 26 27 28 29 29 30 30 31 32 33 33 33 34 34 34 34 34 34 35 34 34 34 34 35 35 35 34 34 33 33 32 32 31 31 30 30 30 29 28 26 24 22 19 15 9 7 8 9 10 14 17 18 20 22 24 23 21 19 20 21 22 22 22 22 22 22
23 23 23 23 24 24 23 23 24 24 24 24 24 25 25 26 26 26 27 27 28 28 29 30 30 30 31 32 33 33 33 33 33 33 33 33 33 33 33 33 33 33 33 32 32 32 32 31 30 29 29 29 28 27 26 25 24 23 21 20 18 14 11 7 3 4 7 10 13 15 15 15 17 18 18 18 18 19 19 20 20 20 21 21 21
24 24 24 24 24 24 24 24 24 24 24 25 25 26 26 26 26 26 27 27 28 28 29 29 30 30 31 32 32 32 33 32 32 32 32 32 32 32 31 31 31 31 31 30 30 29 29 29 29 28 27 27 26 25 24 22 21 19 18 16 15 12 10 8 6 5 6 9 11 12 12 12 13 15 15 16 17 17 18 18 19 18 18 18 19
24 24 24 24 24 24 24 24 24 24 25 25 26 26 26 26 26 27 27 27 28 28 29 29 29 30 30 31 31 31 31 31 31 31 31 31 30 30 30 29 29 29 29 28 28 27 27 27 27 26 25 24 24 23 22 20 18 17 16 14 12 11 10 9 7 5 5 5 7 9 10 11 13 14 15 15 15 16 16 16 16 16 16 16 17
24 24 23 23 24 24 24 24 24 25 25 25 25 25 26 26 27 27 27 28 28 29 29 29 30 30 30 30 30 30 30 30 30 30 29 29 29 28 28 28 28 28 27 27 26 26 25 24 24 24 23 22 21 20 19 17 16 15 14 13 11 10 9 7 6 5 5 5 6 8 9 10 12 13 13 13 14 14 14 14 15 15 15 15 16
23 23 24 24 24 24 24 24 25 25 26 26 26 27 27 27 27 28 28 28 29 29 30 31 31 30 30 29 29 29 29 29 29 29 28 28 27 27 27 27 27 26 25 25 24 24 23 23 22 22 21 20 19 18 17 15 14 14 13 12 10 10 9 8 7 7 7 7 8 8 9 9 10 11 12 12 12 13 13 13 14 15 15 15 16
23 23 24 24 24 25 25 25 26 26 26 27 27 27 28 28 28 28 28 29 29 30 30 31 30 29 29 28 28 28 28 28 28 28 28 27 26 26 26 26 25 24 23 23 23 23 22 21 21 20 20 19 18 17 15 14 14 13 13 12 11 11 10 10 9 9 9 8 8 9 9 9 9 10 11 11 12 13 14 14 15 15 16 17 17
22 23 23 24 24 24 25 25 26 26 26 26 26 26 27 27 27 27 27 28 29 29 29 28 28 27 27 27 27 27 27 27 27 27 27 26 26 25 25 24 24 23 23 22 22 22 21 20 20 19 19 18 17 16 15 14 13 13 12 12 11 11 10 10 10 9 9 9 9 9 10 10 10 11 12 12 13 14 15 15 15 16 16 17 17
21 21 22 22 22 23 23 24 24 24 25 25 24 25 25 25 25 25 26 27 27 26 26 25 25 25 25 25 25 26 26 26 26 26 25 25 25 25 24 24 23 23 22 22 21 20 20 19 19 19 18 17 16 15 15 14 13 13 12 12 11 10 10 10 10 10 10 10 10 11 11 11 12 13 14 14 15 15 15 15 16 16 16 16 16
20 20 21 21 21 22 22 22 22 23 23 23 23 22 23 23 23 24 24 24 23 23 23 23 23 23 23 23 24 25 25 25 25 25 24 24 23 23 23 23 23 22 21 21 20 20 19 19 18 18 18 17 16 15 15 14 14 14 13 12 12 11 11 11 11 11 11 12 12 13 13 14 14 15 16 16 16 16 16 16 16 16 16 17 17
19 19 20 20 20 21 21 21 21 22 22 22 21 21 21 22 22 22 21 21 20 20 21 21 21 21 22 22 22 23 24 24 24 24 23 23 22 22 22 22 22 21 21 20 19 19 19 19 18 18 17 17 17 17 16 15 15 15 14 13 13 13 13 13 13 13 13 14 15 15 15 16 16 16 16 16 15 15 16 16 16 16 17 17 17
Wind_Direction
214 215 216 217 217 218 219 221 222 224 224 225 226 228 229 231 232 234 235 237 238 239 241 241 241 242 243 244 244 245 247 248 249 249 249 251 252 253 252 249 247 248 249 249 250 252 254 257 261 264 266 268 271 274 277 281 286 290 295 296 296 298 298 299 303 308 310 310 313 317 317 313 309 309 311 312 307 304 305 308 308 305 303 303 301
215 216 217 218 218 219 220 221 223 224 225 227 228 229 230 231 233 234 235 237 239 240 242 243 243 243 244 245 246 246 246 247 248 250 250 251 252 254 254 252 249 248 249 249 250 252 254 256 259 262 264 266 268 271 273 277 281 284 288 290 289 289 289 292 296 301 305 307 307 310 315 317 314 310 310 311 309 307 306 308 309 306 303 303 302
215 216 216 218 219 219 221 222 223 224 226 227 228 230 231 233 234 235 236 238 240 241 242 243 244 244 244 245 246 247 247 247 248 249 250 251 252 254 255 254 252 250 250 251 251 252 254 255 258 261 263 264 266 269 271 274 277 280 282 284 285 285 284 285 290 296 300 303 304 304 304 309 312 311 310 311 310 310 310 310 311 309 306 303 303
216 216 216 217 218 219 220 221 222 223 225 227 228 230 232 233 235 236 237 239 240 242 243 244 245 245 245 245 246 247 248 249 250 250 251 252 252 253 255 256 254 252 251 252 253 253 254 256 258 259 261 263 264 267 270 272 275 276 278 280 280 281 282 281 284 289 294 297 300 301 301 303 305 307 309 310 310 311 312 312 313 313 310 306 304
217 218 218 218 219 220 220 222 223 224 226 228 229 230 232 234 236 237 238 239 241 242 243 244 244 245 246 246 246 247 248 249 250 251 252 252 253 254 255 256 256 254 253 253 254 254 255 256 258 259 260 261 263 265 268 270 272 273 274 276 277 278 279 280 280 283 288 291 294 297 299 301 302 302 305 308 309 309 311 312 312 314 313 310 307
218 218 220 220 221 221 222 223 225 226 227 229 230 231 232 234 235 237 238 239 240 242 243 243 244 245 246 247 247 247 248 249 250 251 252 253 254 255 256 258 258 256 254 253 254 254 255 256 257 257 258 259 261 263 265 267 269 270 271 273 275 276 277 278 279 279 282 286 290 292 294 296 298 299 301 303 305 306 308 309 310 312 313 312 309
219 220 222 223 223 223 224 225 226 227 228 229 230 231 233 234 235 236 238 239 240 241 242 243 245 245 246 247 247 247 248 249 250 251 252 254 255 256 257 259 259 258 256 254 253 253 254 255 255 256 257 258 260 261 263 265 267 268 270 271 272 273 274 276 277 277 278 281 284 287 289 291 293 295 298 301 302 303 303 304 305 308 310 310 309
220 221 223 224 225 225 226 227 227 228 229 230 231 231 232 234 235 236 237 238 240 241 241 243 245 246 247 247 248 248 248 249 250 251 252 254 255 256 258 259 259 258 257 256 254 253 254 255 255 256 257 258 259 260 262 263 265 267 268 270 270 271 272 274 275 276 277 278 280 282 285 287 289 291 294 296 297 298 298 299 301 304 306 307 307
220 221 223 225 226 227 228 229 229 229 229 230 230 231 232 233 235 236 237 238 239 241 242 243 244 246 246 247 247 248 248 250 251 252 253 255 256 257 258 259 259 258 258 257 256 254 254 255 256 256 257 258 259 260 261 262 264 266 267 268 269 270 271 273 274 275 276 277 278 280 281 283 285 286 288 290 292 294 296 297 298 300 302 304 305
221 222 224 226 227 227 228 230 230 230 230 230 231 231 232 233 235 236 237 238 239 241 242 243 244 246 246 246 247 248 250 252 252 252 253 255 257 258 258 258 258 258 258 258 257 256 256 256 257 257 257 258 259 260 260 261 263 265 266 267 268 269 270 271 272 273 274 276 277 278 279 280 281 282 283 285 289 292 294 295 296 297 299 301 303
224 224 226 227 228 228 229 230 230 230 230 230 231 232 232 234 235 236 237 238 239 241 242 243 244 245 246 246 247 248 251 253 252 252 252 253 255 257 258 258 258 259 259 258 258 258 258 258 259 259 259 259 259 260 260 262 263 264 265 266 267 268 269 270 272 272 273 275 276 277 278 279 280 280 282 283 285 288 290 291 293 295 296 297 299
227 227 227 228 228 228 229 230 230 231 231 231 232 232 233 234 235 236 237 237 238 240 241 242 243 244 245 246 247 249 251 251 251 251 251 252 253 255 257 258 259 259 259 259 260 261 261 261 261 261 261 260 260 261 261 262 263 264 265 266 266 267 267 269 271 272 273 274 275 276 277 279 279 279 280 281 282 284 286 288 290 292 293 294 296
229 228 228 229 229 229 229 229 230 231 232 232 233 233 234 235 235 236 237 237 238 240 241 242 243 243 245 246 247 249 251 250 249 250 251 251 252 254 257 259 259 260 260 261 262 263 263 263 262 262 262 261 261 262 262 262 263 264 265 266 267 267 267 267 269 271 272 274 275 276 277 278 279 279 279 280 281 282 283 285 287 289 290 291 293
229 229 229 229 230 230 230 230 231 231 232 232 233 234 235 236 236 237 238 238 239 240 241 242 243 243 245 246 247 249 249 248 248 248 249 251 251 254 257 259 260 262 263 264 264 264 264 264 264 263 264 264 264 263 263 263 263 264 265 267 267 267 267 267 268 269 270 273 274 275 276 277 278 279 279 279 279 280 281 282 283 285 288 289 292
230 230 229 229 230 231 231 232 232 232 232 232 232 233 235 236 237 237 238 239 240 242 242 243 244 245 245 246 247 248 247 246 246 247 249 250 252 255 258 259 262 263 264 265 266 266 266 266 266 266 266 267 267 265 265 265 265 265 266 267 268 268 268 268 268 268 269 271 273 275 275 276 277 278 278 278 278 279 281 281 282 284 286 289 291
231 231 230 229 230 231 231 232 233 233 233 232 233 233 234 236 237 237 238 240 241 243 243 244 244 245 245 245 246 247 247 247 246 248 250 251 255 259 260 261 263 265 265 266 267 267 267 267 268 268 268 269 269 267 267 267 267 266 266 267 268 269 269 269 268 267 268 270 272 274 275 275 275 276 276 276 277 278 279 281 281 282 284 287 289
232 232 232 231 231 231 231 233 234 234 234 234 234 234 234 235 236 238 239 240 241 242 243 243 243 244 244 245 246 247 249 249 249 250 252 253 257 261 262 263 265 267 268 268 268 268 268 268 269 269 270 270 270 269 268 267 268 268 267 268 268 269 270 271 269 268 267 268 270 272 273 273 273 273 274 274 275 276 276 277 278 279 281 284 286
232 233 233 231 230 230 231 232 234 234 234 235 235 234 234 235 236 237 238 239 240 241 242 242 243 244 244 246 247 250 252 253 253 255 256 256 258 262 263 264 266 268 270 270 270 270 270 269 269 270 270 270 270 269 268 267 268 268 268 268 268 269 270 271 270 269 268 268 269 270 271 272 272 273 273 273 273 273 274 274 275 275 277 280 283
232 232 232 231 230 229 230 231 233 234 234 235 235 234 234 234 235 236 237 238 239 240 241 242 243 245 247 248 251 253 255 257 257 258 260 260 261 264 265 266 268 270 271 271 271 271 271 271 270 270 271 271 271 270 269 268 267 268 269 269 268 269 271 270 270 270 269 268 268 268 269 269 270 271 272 272 271 271 272 273 273 273 274 276 279
231 231 232 231 229 228 229 229 231 233 233 234 235 234 233 232 233 234 235 237 239 240 241 243 245 247 249 251 253 255 257 259 260 261 263 264 264 266 267 268 270 272 272 272 272 272 272 273 273 272 272 272 272 272 270 269 268 269 269 269 269 271 272 270 269 270 269 268 267 267 267 268 268 269 269 270 270 270 271 271 272 272 273 274 276
230 230 231 230 229 228 229 229 231 233 234 234 235 235 233 232 232 233 235 237 239 240 241 243 246 248 250 252 255 257 258 261 262 264 265 266 266 267 268 270 271 272 272 273 274 274 274 274 275 274 274 274 273 272 272 271 270 270 270 270 271 273 273 271 270 270 270 269 267 267 267 267 267 267 267 268 269 269 270 270 270 270 271 272 274
230 229 229 230 230 229 229 230 231 233 234 234 235 235 234 232 232 233 234 236 238 240 242 244 247 249 252 253 256 258 260 262 264 266 267 267 267 267 268 270 271 272 273 274 275 276 276 276 276 276 276 275 274 273 272 272 272 271 271 272 273 273 273 273 272 271 270 269 268 267 266 266 266 266 266 266 267 267 268 269 269 269 269 270 273
230 228 228 229 230 230 231 231 232 233 234 233 234 234 234 233 233 233 235 236 238 241 243 246 248 251 253 256 258 260 262 264 266 267 268 268 268 268 269 270 271 272 273 274 275 276 276 277 277 277 277 277 276 275 274 274 273 273 273 273 273 273 273 273 273 271 270 269 267 266 265 265 265 265 265 265 265 265 266 268 268 268 268 270 273
232 230 229 229 230 232 233 233 234 233 233 233 233 234 235 234 235 235 236 238 240 242 245 247 249 252 255 258 261 263 265 267 268 268 269 269 269 270 271 272 272 273 274 275 276 277 277 277 278 278 278 278 278 277 276 276 275 275 274 273 273 273 273 272 272 271 270 268 266 265 265 264 264 263 263 264 264 264 265 266 267 267 268 270 272
233 231 229 229 231 233 234 235 234 233 233 233 233 234 235 236 237 238 238 240 242 244 246 248 250 253 256 259 263 265 267 269 270 271 271 271 272 273 273 273 274 274 276 277 278 278 278 278 279 279 280 279 279 279 278 278 277 276 275 274 273 273 272 272 271 270 269 267 266 265 264 263 263 263 262 262 262 262 263 264 265 266 266 268 270
232 230 228 228 230 233 234 235 233 232 232 232 233 234 235 237 239 240 241 242 244 246 248 251 253 255 258 261 264 267 269 270 271 272 274 275 275 275 276 276 276 276 278 279 279 280 279 280 280 280 280 281 280 280 280 279 278 277 276 275 274 273 272 271 270 269 268 267 266 265 263 263 262 261 260 260 260 261 262 262 263 264 264 265 267
231 229 227 227 229 231 233 233 231 230 231 232 234 236 237 239 241 242 243 244 246 248 251 253 256 258 261 263 265 266 268 270 271 274 277 278 278 278 278 279 279 279 280 280 280 281 281 281 281 281 282 282 281 281 281 281 280 279 278 277 275 273 272 271 269 268 267 266 265 264 263 262 260 259 258 258 258 260 260 260 260 261 262 262 264
231 229 228 228 229 230 230 230 229 229 231 233 236 238 239 241 243 244 246 247 248 250 253 255 257 260 262 264 266 267 269 271 274 277 279 280 281 281 281 282 282 283 283 283 283 283 283 283 283 283 283 283 282 282 282 282 281 281 279 278 276 274 272 270 268 267 266 265 263 262 261 260 258 257 256 256 257 258 258 258 258 259 259 260 262
232 231 230 229 229 229 229 228 228 230 232 235 238 241 242 243 244 245 248 250 251 252 254 255 258 260 263 266 268 270 272 275 277 279 280 282 283 284 284 285 285 285 286 286 286 286 286 286 286 286 285 285 284 283 283 283 282 281 280 278 276 274 272 270 268 267 266 264 262 259 258 257 256 255 255 255 255 255 255 256 256 256 257 258 261
233 232 232 231 229 229 229 230 231 233 233 234 238 241 244 246 245 245 247 249 251 253 254 256 259 261 263 267 270 272 274 276 278 280 282 283 285 286 287 288 288 288 288 289 289 289 289 289 288 288 287 287 286 285 285 284 283 282 281 279 277 275 273 271 270 269 268 266 264 260 257 255 254 253 253 254 254 253 252 252 254 254 254 257 260
232 233 234 233 231 230 230 232 235 236 234 234 238 240 242 246 248 248 248 248 250 252 255 258 261 264 267 269 272 273 275 277 280 282 283 285 287 288 288 289 289 290 291 291 291 291 290 290 289 289 289 289 288 287 287 285 284 283 282 280 278 276 274 272 271 270 269 267 264 260 256 254 252 250 250 250 251 250 250 250 252 252 253 256 258
231 233 235 235 234 233 234 235 237 238 236 236 239 241 242 245 248 250 251 251 252 254 256 259 263 267 269 271 273 275 277 279 281 283 285 287 288 289 290 291 291 292 292 292 292 292 291 290 290 290 290 290 290 290 289 288 287 285 284 282 279 278 276 274 272 270 267 265 262 259 257 254 251 248 246 246 246 247 247 248 249 250 252 254 256
232 233 235 235 234 235 236 237 238 238 238 238 240 242 245 247 248 249 251 254 256 258 259 261 264 267 270 272 274 276 278 280 282 284 286 288 290 291 292 293 293 293 293 293 293 292 292 292 292 292 292 292 293 293 292 291 290 288 285 284 282 281 279 276 272 269 266 263 261 259 256 253 249 245 243 242 242 243 244 244 245 247 250 252 254
234 234 234 234 234 235 236 237 238 238 239 240 241 243 245 246 247 248 250 253 257 259 262 264 266 269 271 273 276 278 280 282 285 287 289 291 292 293 294 294 294 294 294 294 294 294 294 294 294 294 294 294 295 295 294 294 293 291 289 287 285 284 282 278 273 269 266 262 259 255 252 249 245 241 239 238 238 239 240 241 242 244 246 248 252
234 234 234 234 234 235 236 236 237 237 238 240 241 243 245 246 248 251 253 256 258 260 262 265 268 271 273 276 279 282 284 285 287 289 290 291 293 294 295 295 295 295 296 296 295 295 296 296 296 296 296 296 296 296 295 295 295 294 293 291 289 287 285 281 276 271 265 259 253 250 247 245 241 236 235 235 235 236 237 238 238 239 241 244 250
230 231 232 233 234 235 236 237 237 238 240 242 243 246 248 250 252 254 256 259 260 262 264 267 269 273 276 279 282 284 285 286 287 288 289 291 293 294 295 296 296 297 297 297 297 298 298 298 299 299 298 298 298 298 297 297 297 297 296 296 294 292 290 286 281 274 264 253 247 246 245 242 236 232 230 230 231 232 233 232 233 236 240 244 250
231 232 232 233 233 234 235 237 239 240 243 245 247 249 251 253 255 257 259 261 263 265 268 270 272 274 277 281 284 285 286 287 288 289 290 291 292 294 295 296 296 297 298 298 299 299 300 300 301 301 301 300 300 300 300 300 299 299 298 298 297 296 294 289 283 273 259 247 243 244 241 237 232 226 224 224 225 225 227 230 233 237 240 244 249
233 234 233 234 234 236 237 239 241 243 245 248 250 252 253 255 257 259 262 264 266 268 271 272 273 275 278 281 284 286 287 288 289 290 291 291 292 293 294 295 296 297 298 299 300 300 301 302 303 303 303 303 303 303 303 303 303 303 301 300 300 301 300 293 281 264 248 243 245 244 236 229 224 219 216 216 218 220 225 231 234 235 239 243 247
234 234 235 236 237 239 241 243 245 246 248 250 253 255 256 258 260 262 264 266 268 270 271 273 274 276 279 282 285 287 288 289 290 291 291 291 291 292 293 295 296 297 298 298 300 301 302 303 304 305 305 306 306 306 306 307 308 308 307 306 304 304 304 299 281 256 246 248 249 241 226 217 214 210 207 207 211 218 225 230 232 234 239 243 244
235 235 237 238 240 241 243 245 247 249 251 253 255 257 259 261 263 265 266 268 269 271 273 274 275 277 281 284 286 288 288 289 290 290 290 290 290 292 294 295 296 297 297 298 299 302 303 305 306 307 307 308 309 309 309 310 311 312 314 316 315 312 309 299 275 258 256 247 229 214 206 205 206 204 201 204 213 223 227 229 231 235 238 241 242
237 238 239 241 243 243 245 247 249 250 252 255 258 260 260 262 265 266 267 269 271 272 274 275 276 278 281 285 287 287 287 288 288 289 289 290 290 292 294 295 296 297 298 298 299 301 303 305 307 308 309 311 312 313 313 315 316 316 318 324 329 331 332 321 279 254 244 222 205 199 198 201 203 204 206 214 225 231 231 231 234 237 239 240 241
239 241 243 245 246 247 248 250 252 253 255 258 260 261 262 263 265 267 268 270 272 273 274 275 276 279 282 285 287 287 287 287 288 288 290 291 291 292 293 294 296 298 299 299 299 300 302 304 307 308 310 312 314 316 317 318 320 320 322 326 331 335 340 346 321 239 221 212 205 201 201 205 209 213 219 227 233 234 234 236 239 241 241 239 237
240 242 244 247 249 250 252 254 256 257 259 260 261 262 264 266 267 269 272 274 275 275 276 277 279 281 283 285 286 286 287 287 288 288 290 291 292 292 293 294 295 297 298 299 299 299 300 303 306 307 309 311 313 315 317 318 319 320 322 326 328 328 326 323 312 276 238 220 212 210 214 219 221 224 231 237 238 236 237 239 241 240 236 233 233
240 243 245 248 250 253 255 257 258 259 260 260 261 264 267 269 271 272 274 276 276 277 278 279 281 283 284 285 285 286 286 287 288 289 289 290 291 292 292 293 295 297 298 298 298 298 299 302 304 306 308 310 312 313 314 315 315 316 317 321 325 328 327 322 313 295 271 249 235 231 234 234 231 233 239 241 237 235 237 237 236 234 233 233 235
243 245 248 250 252 255 257 259 260 262 263 264 265 267 269 270 272 273 274 275 276 276 277 279 282 284 285 285 285 285 285 286 288 289 289 290 290 291 292 294 295 296 297 297 297 297 298 300 303 305 306 308 311 311 312 313 314 313 312 314 317 320 320 316 307 295 283 267 249 241 241 241 239 239 241 238 234 234 235 234 234 235 236 237 237
247 249 251 252 254 256 258 260 261 263 264 265 266 267 268 269 271 272 273 275 275 276 277 279 281 283 284 285 285 285 285 286 287 288 288 289 290 291 293 295 295 295 295 296 297 297 297 298 301 303 304 306 308 308 308 309 310 309 308 307 308 309 307 301 292 285 277 265 252 245 243 243 240 238 237 236 236 236 235 235 237 239 239 240 240
249 251 253 254 255 257 259 260 262 263 264 265 267 268 269 271 272 272 274 276 278 278 279 281 281 281 282 283 284 285 286 287 287 288 288 289 290 291 293 295 294 293 293 295 296 296 297 297 298 299 301 302 303 303 304 303 302 301 301 300 298 297 295 291 286 281 273 262 250 241 238 238 239 238 239 240 241 242 242 242 243 244 245 246 246
250 251 253 255 256 258 259 261 263 264 265 266 268 269 271 272 273 273 275 277 279 280 280 280 280 280 281 282 283 284 285 287 288 288 289 289 289 290 292 294 293 291 292 293 295 296 295 295 294 295 297 299 298 298 299 300 298 295 294 293 292 291 288 284 281 278 270 259 249 244 242 245 247 245 244 245 246 247 247 247 246 248 249 248 247
249 251 253 255 257 259 261 262 263 264 266 267 268 270 271 272 273 275 276 277 278 278 279 279 279 280 281 283 284 285 285 286 287 288 289 289 289 288 289 291 291 291 290 291 292 293 294 293 293 293 294 295 295 294 293 294 294 292 290 287 287 289 287 281 277 275 270 262 257 253 252 253 252 250 250 252 253 252 251 250 249 249 248 248 248
251 253 255 257 260 262 264 263 264 265 267 267 269 272 273 273 274 275 276 276 277 277 278 279 279 281 282 284 284 285 285 286 286 287 288 288 288 287 287 287 288 288 288 287 288 289 290 291 292 292 291 291 290 289 288 287 287 287 286 283 281 282 282 278 275 272 269 266 263 261 261 261 259 257 256 257 256 254 252 251 251 250 250 251 252
254 255 257 259 261 263 265 265 266 267 268 268 270 273 274 274 273 274 274 275 276 278 279 280 281 283 284 285 286 286 285 285 286 287 287 287 287 287 286 287 286 286 284 283 284 286 287 288 288 288 287 286 285 285 284 284 283 282 282 280 278 277 277 276 275 274 272 269 267 265 264 263 261 258 257 256 255 254 252 251 252 252 252 253 254